TimePST,TemperatureF,Dew PointF,Humidity,Sea Level PressureIn,VisibilityMPH,Wind Direction,Wind SpeedMPH,Gust SpeedMPH,PrecipitationIn,Events,Conditions,WindDirDegrees,DateUTC
12:15 AM,28.4,24.8,86,29.64,10.0,WSW,4.6,-,N/A,,Overcast,240,2012-12-14 08:15:00
12:35 AM,28.4,23.0,80,29.64,10.0,WSW,6.9,-,N/A,,Overcast,250,2012-12-14 08:35:00
12:55 AM,28.4,23.0,80,29.64,10.0,West,6.9,-,N/A,,Overcast,260,2012-12-14 08:55:00
1:15 AM,28.4,23.0,80,29.64,10.0,WSW,5.8,-,N/A,,Overcast,240,2012-12-14 09:15:00
1:35 AM,26.6,21.2,80,29.65,10.0,WSW,6.9,-,N/A,,Overcast,250,2012-12-14 09:35:00
1:55 AM,26.6,21.2,80,29.65,10.0,SW,5.8,-,N/A,,Overcast,230,2012-12-14 09:55:00
2:15 AM,26.6,21.2,80,29.66,10.0,WSW,8.1,-,N/A,,Overcast,240,2012-12-14 10:15:00
2:35 AM,24.8,19.4,80,29.66,10.0,WSW,9.2,-,N/A,,Mostly Cloudy,240,2012-12-14 10:35:00
2:55 AM,24.8,19.4,80,29.65,10.0,WSW,10.4,-,N/A,,Mostly Cloudy,240,2012-12-14 10:55:00
3:15 AM,23.0,17.6,80,29.65,10.0,WSW,9.2,-,N/A,,Scattered Clouds,240,2012-12-14 11:15:00
3:35 AM,23.0,15.8,74,29.65,10.0,WSW,10.4,-,N/A,,Clear,250,2012-12-14 11:35:00
3:55 AM,23.0,14.0,68,29.65,10.0,WSW,6.9,-,N/A,,Clear,250,2012-12-14 11:55:00
4:15 AM,21.2,14.0,74,29.66,10.0,WSW,6.9,-,N/A,,Clear,250,2012-12-14 12:15:00
4:35 AM,21.2,12.2,68,29.66,10.0,West,9.2,-,N/A,,Clear,260,2012-12-14 12:35:00
4:55 AM,21.2,12.2,68,29.67,10.0,WSW,9.2,-,N/A,,Clear,250,2012-12-14 12:55:00
5:15 AM,21.2,15.8,80,29.68,10.0,West,9.2,16.1,N/A,,Clear,260,2012-12-14 13:15:00
5:35 AM,21.2,17.6,86,29.68,10.0,West,9.2,-,N/A,,Clear,260,2012-12-14 13:35:00
5:55 AM,21.2,17.6,86,29.69,10.0,WSW,8.1,-,N/A,,Clear,250,2012-12-14 13:55:00
6:15 AM,21.2,17.6,86,29.70,10.0,West,9.2,-,N/A,,Clear,260,2012-12-14 14:15:00
6:35 AM,23.0,17.6,80,29.70,10.0,West,13.8,-,N/A,,Clear,270,2012-12-14 14:35:00
6:55 AM,23.0,17.6,80,29.70,10.0,West,13.8,-,N/A,,Clear,270,2012-12-14 14:55:00
7:15 AM,21.2,15.8,80,29.71,10.0,WSW,8.1,16.1,N/A,,Clear,250,2012-12-14 15:15:00
7:35 AM,23.0,17.6,80,29.72,10.0,West,11.5,18.4,N/A,,Clear,260,2012-12-14 15:35:00
7:55 AM,23.0,17.6,80,29.73,10.0,West,11.5,17.3,N/A,,Clear,260,2012-12-14 15:55:00
8:15 AM,24.8,17.6,74,29.73,10.0,WSW,10.4,17.3,N/A,,Clear,240,2012-12-14 16:15:00
8:35 AM,26.6,17.6,69,29.73,10.0,WSW,13.8,21.9,N/A,,Clear,250,2012-12-14 16:35:00
8:55 AM,26.6,17.6,69,29.75,10.0,West,16.1,21.9,N/A,,Clear,260,2012-12-14 16:55:00
9:15 AM,26.6,17.6,69,29.76,10.0,West,19.6,28.8,N/A,,Clear,260,2012-12-14 17:15:00
9:35 AM,26.6,19.4,74,29.77,10.0,West,19.6,25.3,N/A,,Clear,270,2012-12-14 17:35:00
9:55 AM,26.6,19.4,74,29.77,10.0,West,15.0,26.5,N/A,,Clear,260,2012-12-14 17:55:00
10:15 AM,28.4,19.4,69,29.77,10.0,West,16.1,23.0,N/A,,Clear,260,2012-12-14 18:15:00
10:35 AM,28.4,17.6,64,29.77,10.0,WSW,13.8,24.2,N/A,,Clear,250,2012-12-14 18:35:00
10:55 AM,28.4,17.6,64,29.78,10.0,West,13.8,24.2,N/A,,Clear,260,2012-12-14 18:55:00
11:15 AM,28.4,17.6,64,29.78,10.0,WSW,12.7,26.5,N/A,,Clear,250,2012-12-14 19:15:00
11:35 AM,28.4,19.4,69,29.78,10.0,West,15.0,21.9,N/A,,Clear,260,2012-12-14 19:35:00
11:55 AM,28.4,17.6,64,29.77,10.0,West,12.7,24.2,N/A,,Clear,260,2012-12-14 19:55:00
12:15 PM,28.4,17.6,64,29.77,10.0,WSW,10.4,21.9,N/A,,Clear,240,2012-12-14 20:15:00
12:35 PM,28.4,17.6,64,29.77,10.0,SW,6.9,19.6,N/A,,Clear,230,2012-12-14 20:35:00
12:55 PM,28.4,17.6,64,29.77,10.0,WSW,9.2,20.7,N/A,,Scattered Clouds,240,2012-12-14 20:55:00
1:15 PM,28.4,19.4,69,29.78,10.0,WSW,9.2,18.4,N/A,,Scattered Clouds,240,2012-12-14 21:15:00
1:35 PM,28.4,21.2,74,29.77,10.0,SW,15.0,20.7,N/A,,Mostly Cloudy,230,2012-12-14 21:35:00
1:55 PM,28.4,19.4,69,29.77,10.0,WSW,11.5,20.7,N/A,,Overcast,250,2012-12-14 21:55:00
2:15 PM,26.6,19.4,74,29.78,10.0,West,16.1,25.3,N/A,,Overcast,260,2012-12-14 22:15:00
2:35 PM,26.6,19.4,74,29.78,10.0,WSW,11.5,18.4,N/A,,Overcast,250,2012-12-14 22:35:00
2:55 PM,26.6,19.4,74,29.78,10.0,West,12.7,19.6,N/A,,Overcast,260,2012-12-14 22:55:00
3:15 PM,26.6,21.2,80,29.79,10.0,WSW,12.7,17.3,N/A,,Overcast,250,2012-12-14 23:15:00
3:35 PM,26.6,21.2,80,29.79,4.0,SW,10.4,16.1,N/A,,Haze,230,2012-12-14 23:35:00
3:55 PM,26.6,21.2,80,29.80,2.5,WSW,10.4,17.3,N/A,Snow,Light Snow,240,2012-12-14 23:55:00
4:15 PM,26.6,21.2,80,29.79,7.0,West,10.4,-,N/A,,Overcast,260,2012-12-15 00:15:00
4:35 PM,26.6,23.0,86,29.79,1.8,WSW,4.6,-,N/A,Snow,Light Snow,240,2012-12-15 00:35:00
4:55 PM,26.6,21.2,80,29.79,4.0,WSW,9.2,-,N/A,Snow,Light Snow,250,2012-12-15 00:55:00
5:15 PM,26.6,21.2,80,29.79,4.0,SW,5.8,19.6,N/A,Snow,Light Snow,230,2012-12-15 01:15:00
5:35 PM,26.6,21.2,80,29.80,2.5,WSW,9.2,17.3,N/A,Snow,Light Snow,250,2012-12-15 01:35:00
5:55 PM,26.6,21.2,80,29.81,4.0,WSW,9.2,16.1,N/A,Snow,Light Snow,240,2012-12-15 01:55:00
6:15 PM,26.6,21.2,80,29.82,7.0,West,10.4,18.4,N/A,,Overcast,260,2012-12-15 02:15:00
6:35 PM,24.8,21.2,86,29.82,2.5,West,6.9,16.1,N/A,Snow,Light Snow,260,2012-12-15 02:35:00
6:55 PM,24.8,21.2,86,29.82,2.0,WSW,6.9,-,N/A,Snow,Light Snow,240,2012-12-15 02:55:00
7:15 PM,24.8,21.2,86,29.82,1.5,West,10.4,-,N/A,Snow,Light Snow,260,2012-12-15 03:15:00
7:35 PM,24.8,21.2,86,29.82,5.0,West,8.1,-,N/A,Snow,Light Snow,260,2012-12-15 03:35:00
7:55 PM,26.6,21.2,80,29.83,10.0,WSW,10.4,18.4,N/A,,Overcast,250,2012-12-15 03:55:00
8:15 PM,26.6,21.2,80,29.84,10.0,WSW,9.2,-,N/A,,Overcast,250,2012-12-15 04:15:00
8:35 PM,26.6,23.0,86,29.84,10.0,WSW,10.4,-,N/A,,Overcast,250,2012-12-15 04:35:00
8:55 PM,26.6,23.0,86,29.85,10.0,WSW,10.4,-,N/A,,Overcast,250,2012-12-15 04:55:00
9:15 PM,26.6,23.0,86,29.85,7.0,West,8.1,-,N/A,Snow,Light Snow,260,2012-12-15 05:15:00
9:35 PM,26.6,23.0,86,29.85,3.0,West,8.1,-,N/A,Snow,Light Snow,260,2012-12-15 05:35:00
9:55 PM,26.6,23.0,86,29.85,3.0,West,10.4,-,N/A,Snow,Light Snow,260,2012-12-15 05:55:00
10:15 PM,26.6,23.0,86,29.85,5.0,West,10.4,-,N/A,Snow,Light Snow,270,2012-12-15 06:15:00
10:35 PM,26.6,23.0,86,29.86,7.0,West,8.1,-,N/A,,Overcast,260,2012-12-15 06:35:00
10:55 PM,26.6,23.0,86,29.86,3.0,West,6.9,-,N/A,Snow,Light Snow,260,2012-12-15 06:55:00
11:15 PM,28.4,23.0,80,29.85,4.0,WSW,6.9,-,N/A,Snow,Light Snow,250,2012-12-15 07:15:00
11:35 PM,28.4,23.0,80,29.85,1.5,WSW,6.9,-,N/A,Snow,Light Snow,250,2012-12-15 07:35:00
11:55 PM,28.4,24.8,86,29.85,1.0,West,6.9,-,N/A,Snow,Snow,260,2012-12-15 07:55:00